sat.trackr.live / text

‹ back to catalog

STARLINK-31480

NORAD 59306 · 2024-056L

PAYLOAD ACTIVE UNKNOWN

§ Identity

Operator
Country
US
Launch date
2024-03-24
Launch site
AFETR
Launch vehicle
Mass (kg)
RCS (m²)

Purposes: comms

External: N2YO · Heavens-Above · Gunter

§ Orbital elements

Epoch: 2026-05-25T01:07:44.853024Z

Period
94.27 min
Inclination
43.0012°
Eccentricity
0.0001241
Mean motion
15.27576190 rev/d
Perigee alt
482.2 km
Apogee alt
483.9 km
Semi-major
6,861.2 km
B*
1.5644e-5
RAAN
159.3560°
Arg perigee
266.8933°
Mean anomaly
93.1777°
Rev number
12,283

§ Raw data

STARLINK-314801 59306U 24056L   26145.04704691  .00000168  00000+0  15644-4 0  99972 59306  43.0012 159.3560 0001241 266.8933  93.1777 15.27576190122832

JSON: /api/v1/satellites/59306 · /tle

For live sub-satellite position, see the globe view (requires WebGL).

§ Visibility from observer

Set your observer location to see the next 7 days of passes ≥ 10°. The values pass through the URL so the page stays shareable.

No JS? Fill the form by hand. The geolocation button needs JavaScript.